[[{"header":{"parameterUnit":"m.s-1","parameterCategory":1,"la1":30.2991,"la2":30.254,"lo1":-89.0895,"lo2":-89.0444,"dy":0.0017,"dx":0.0017,"nx":28,"ny":28,"refTime":"2024-03-20T03:00:00:Z","depth":0,"parameterNumber":2,"parameterNumberName":"U-component_of_WINDS"},"data":[0,0,0,0,0,0,0,0,0,0,0,0,0,0,0,0,0,0,0,0,0,0,0,0,0,0,0,0,0,0,0,0,0,0,0,0,0,0,0,0,0,0,0,0,0,0,0,0,0,0,0,0,0,0,0,0,0,0,2.6411,2.6412,0,2.6533,2.6534,2.6536,2.6508,2.6505,2.6503,2.6501,2.6626,2.6631,2.6637,0,0,0,0,0,0,0,0,0,0,0,0,0,2.6155,2.616,2.6411,2.6412,2.6414,2.6533,2.6534,2.6536,2.6508,2.6505,2.6502,2.65,2.6624,2.6631,2.6637,0,0,0,0,0,0,0,0,0,0,0,0,0,2.627,2.6161,2.6411,2.6414,2.6416,2.6532,2.6534,2.6536,2.6509,2.6505,2.6502,2.6499,2.6622,2.663,2.6638,2.6759,0,0,2.6663,2.6667,0,0,0,0,0,0,0,0,2.6264,2.628,2.6412,2.6414,2.6416,2.6502,2.649,2.6611,2.651,2.6473,2.6501,2.6497,2.6587,2.6598,2.6629,2.6765,2.677,2.6664,2.6669,2.6673,2.6675,0,0,0,0,0,0,0,2.6256,2.6274,2.6459,2.6414,2.6417,2.641,2.6423,2.6513,2.6548,2.6476,2.6475,2.6489,2.6588,2.6621,2.6632,2.6772,2.6664,2.6671,2.6676,2.668,2.7013,2.7016,0,0,0,0,0,0,2.6246,2.6268,2.6455,2.6463,2.633,2.6418,2.6432,2.6478,2.6547,2.6555,2.6492,2.6488,2.6609,2.6622,2.6636,2.6781,2.6673,2.668,2.6685,2.7009,2.7014,2.7018,0,0,0,0,0,0,2.6241,2.6263,2.645,2.6365,2.6388,2.6426,2.6478,2.6482,2.6515,2.6559,2.6566,2.6519,2.6606,2.6624,2.6728,2.6785,2.6684,2.6692,2.7004,2.701,2.7016,2.7073,0,0,0,0,0,0,2.6233,2.6261,2.6307,2.6366,2.6393,2.6541,2.6481,2.6487,2.6529,2.6524,2.6587,2.6594,2.6605,2.6716,2.6737,2.6795,2.6698,2.6999,2.7007,2.7014,2.7066,2.708,2.7092,0,0,0,0,0,2.6224,2.6318,2.6309,2.6332,2.6451,2.6544,2.6559,2.657,2.6534,2.658,2.6609,2.6592,2.6776,2.6727,2.675,2.6811,2.6996,2.7005,2.7013,2.706,2.7077,2.7092,0,0,0,0,0,0,2.6265,2.6326,2.6317,2.6433,2.6483,2.6539,2.6598,2.6588,2.665,2.6643,2.6654,2.6669,2.6775,2.6804,2.6748,2.6932,2.6881,2.6894,2.6909,2.6925,2.6938,2.6928,2.6705,0,0,0,0,0,2.6287,2.6357,2.6407,2.6505,2.6531,2.656,2.6601,2.6605,2.6658,2.6679,2.6716,2.6768,2.6838,2.6883,2.695,2.7071,2.7084,2.7124,2.7137,2.7148,2.7159,2.7225,2.7243,2.7047,2.7047,2.7046,0,0,2.6334,2.6376,2.642,2.6514,2.6554,2.6626,2.6578,2.6657,2.6711,2.6691,2.6792,2.6821,2.688,2.6993,2.7044,2.702,2.7216,2.7159,2.7167,2.7173,2.7236,2.7254,2.7271,2.7053,2.7052,2.7051,0,0,2.6456,2.6496,2.6581,2.6622,2.6683,2.6702,2.6723,2.678,2.6799,2.69,2.6887,2.6951,2.7071,2.7114,2.7151,2.7291,2.7277,2.7313,2.7379,2.7444,2.7459,2.7473,2.7522,2.754,2.7324,2.7324,2.7324,0,2.6507,2.6615,2.6626,2.6707,2.6748,2.6735,2.6821,2.6861,2.694,2.6969,2.6941,2.7092,2.713,2.7253,2.7287,2.7318,2.7342,2.7305,2.7456,2.747,2.7483,2.753,2.7549,2.7328,2.7328,2.7327,2.7327,0,2.6675,2.675,2.6812,2.6889,2.6938,2.7021,2.7045,2.7093,2.7094,2.7116,2.722,2.7266,2.7342,2.7371,2.7373,2.7495,2.7478,2.7453,2.7402,2.7505,2.755,2.7568,2.7333,2.7332,2.7331,2.733,0,0,2.6824,2.6907,2.6929,2.6964,2.7031,2.709,2.7173,2.7247,2.7288,2.7344,2.7414,2.7516,2.7494,2.7536,2.7542,2.7599,2.7706,2.7567,2.7569,2.7591,2.7843,2.7861,2.7881,2.7698,2.7702,2.7705,2.7838,0,2.6952,2.7097,2.711,2.7241,2.7311,2.73,2.7372,2.7421,2.7444,2.7507,2.7534,2.7606,2.7571,2.7596,2.7652,2.7682,2.7757,2.7672,2.7763,2.7766,2.7747,2.7905,2.7923,2.8047,2.7856,2.7859,2.7861,0,2.712,2.7181,2.7319,2.7376,2.7406,2.747,2.7539,2.76,2.7656,2.7669,2.7717,2.7716,2.7801,2.7748,2.7866,2.7808,2.7846,2.7866,2.7872,2.7879,2.7818,2.7916,2.8086,2.8104,2.7888,2.7886,2.7884,0,2.7215,2.7331,2.7429,2.7459,2.7528,2.7574,2.7605,2.7657,2.7701,2.7762,2.7791,2.7861,2.7899,2.7953,2.7971,2.7931,2.8089,2.8037,2.8102,2.8101,2.8134,2.8131,2.8312,2.8161,2.8161,2.816,2.816,0,2.7355,2.744,2.7472,2.7532,2.7626,2.7641,2.7734,2.7763,2.7809,2.7875,2.787,2.7931,2.7952,2.8017,2.8032,2.8127,2.8145,2.8158,2.816,2.8157,2.8156,2.8181,2.8173,2.8165,2.8164,2.8163,2.8162,0,2.7476,2.7501,2.7606,2.7664,2.768,2.7747,2.7796,2.7854,2.7877,2.796,2.798,2.8017,2.8093,2.8117,2.8209,2.8219,2.833,2.8326,2.8311,2.8311,2.8374,2.8368,2.8577,2.8605,2.8436,2.8438,2.8439,0,2.7563,2.7628,2.7693,2.7736,2.7769,2.7839,2.7884,2.7901,2.7948,2.8017,2.8066,2.8142,2.8203,2.8326,2.8361,2.8432,2.8428,2.8497,2.8439,2.8434,2.8428,2.8423,2.8429,2.8507,2.8509,2.851,2.8511,0,2.7716,2.7725,2.779,2.7859,2.7913,2.7969,2.8022,2.8058,2.8083,2.8136,2.8214,2.8262,2.8356,2.8432,2.8504,2.8536,2.8528,2.853,2.8548,2.8545,2.8533,2.8539,2.834,2.8524,2.8523,2.8522,2.8521,2.8521,2.7822,2.7879,2.7933,2.8006,2.8048,2.8098,2.8155,2.8185,2.8251,2.8329,2.8335,2.842,2.8474,2.857,2.8606,2.8673,2.8653,2.868,2.8687,2.8693,2.8697,2.8524,2.8686,2.8686,2.8686,2.8685,2.8685,0,2.7973,2.8008,2.8074,2.8149,2.8206,2.8194,2.8253,2.8302,2.8376,2.8428,2.8488,2.8578,2.8651,2.8692,2.8765,2.8811,2.8809,2.8829,2.8825,2.8833,2.8711,2.8687,2.8829,2.8829,2.8829,2.8829,2.8829,2.8829,2.8058,2.8154,2.817,2.8287,2.8321,2.8403,2.8438,2.8484,2.8525,2.8626,2.8687,2.8713,2.876,2.8837,2.8903,2.8914,2.894,2.8963,2.897,2.8856,2.8841,2.8827,2.8804,2.8969,2.8969,2.9086,2.9087,2.9088]},{"header":{"parameterUnit":"m.s-1","parameterCategory":1,"la1":30.2991,"la2":30.254,"lo1":-89.0895,"lo2":-89.0444,"dy":0.0017,"dx":0.0017,"nx":28,"ny":28,"refTime":"2024-03-20T03:00:00:Z","depth":0,"parameterNumber":3,"parameterNumberName":"V-component_of_WINDS"},"data":[0,0,0,0,0,0,0,0,0,0,0,0,0,0,0,0,0,0,0,0,0,0,0,0,0,0,0,0,0,0,0,0,0,0,0,0,0,0,0,0,0,0,0,0,0,0,0,0,0,0,0,0,0,0,0,0,0,0,-2.9202,-2.9203,0,-2.9265,-2.9266,-2.9266,-2.9235,-2.9233,-2.9231,-2.923,-2.9293,-2.9296,-2.93,0,0,0,0,0,0,0,0,0,0,0,0,0,-2.9052,-2.9055,-2.9202,-2.9203,-2.9203,-2.9265,-2.9266,-2.9267,-2.9235,-2.9233,-2.9231,-2.9229,-2.9292,-2.9296,-2.93,0,0,0,0,0,0,0,0,0,0,0,0,0,-2.9116,-2.9056,-2.9202,-2.9195,-2.9195,-2.9265,-2.9266,-2.9267,-2.9235,-2.9233,-2.923,-2.9228,-2.9291,-2.9296,-2.93,-2.938,0,0,-2.9315,-2.9317,0,0,0,0,0,0,0,0,-2.9113,-2.9122,-2.9195,-2.9196,-2.9196,-2.924,-2.9236,-2.9305,-2.9236,-2.922,-2.923,-2.9227,-2.9277,-2.9283,-2.93,-2.9383,-2.9386,-2.9316,-2.9319,-2.9321,-2.9322,0,0,0,0,0,0,0,-2.9108,-2.9119,-2.9227,-2.9196,-2.9197,-2.9188,-2.9195,-2.9249,-2.9262,-2.9221,-2.9219,-2.9227,-2.9277,-2.9296,-2.9302,-2.9386,-2.9316,-2.932,-2.9323,-2.9325,-2.9536,-2.9538,0,0,0,0,0,0,-2.9104,-2.9115,-2.9225,-2.9229,-2.9147,-2.9193,-2.92,-2.9228,-2.9261,-2.9264,-2.9229,-2.9225,-2.9289,-2.9296,-2.9304,-2.9397,-2.9321,-2.9325,-2.9328,-2.9533,-2.9536,-2.9539,0,0,0,0,0,0,-2.9101,-2.9114,-2.9222,-2.9172,-2.9185,-2.9198,-2.923,-2.9231,-2.9249,-2.9267,-2.9269,-2.9246,-2.9287,-2.9297,-2.9361,-2.9399,-2.9327,-2.9332,-2.953,-2.9534,-2.9538,-2.9587,0,0,0,0,0,0,-2.9097,-2.9113,-2.9144,-2.9172,-2.9187,-2.9279,-2.9232,-2.9234,-2.9258,-2.9254,-2.9284,-2.9286,-2.9286,-2.9354,-2.9366,-2.9405,-2.9336,-2.9526,-2.9532,-2.9536,-2.9582,-2.9592,-2.9601,0,0,0,0,0,-2.9092,-2.9156,-2.9146,-2.9159,-2.9226,-2.9281,-2.929,-2.9289,-2.9261,-2.9292,-2.9303,-2.9285,-2.9394,-2.9361,-2.9374,-2.9415,-2.9524,-2.953,-2.9536,-2.9577,-2.959,-2.96,0,0,0,0,0,0,-2.9132,-2.9159,-2.9149,-2.9224,-2.9251,-2.9276,-2.9315,-2.9302,-2.9337,-2.9331,-2.9328,-2.9335,-2.9401,-2.9415,-2.9377,-2.9493,-2.9454,-2.9463,-2.9481,-2.9493,-2.9503,-2.9497,-2.934,0,0,0,0,0,-2.9149,-2.9192,-2.9214,-2.9278,-2.9292,-2.9301,-2.9325,-2.9322,-2.9349,-2.936,-2.9376,-2.9403,-2.9442,-2.9469,-2.9507,-2.9584,-2.9589,-2.9618,-2.9628,-2.9636,-2.9643,-2.9683,-2.9696,-2.9559,-2.9559,-2.9559,0,0,-2.9186,-2.9206,-2.9233,-2.9286,-2.9306,-2.935,-2.9311,-2.9359,-2.9391,-2.9367,-2.9428,-2.9441,-2.947,-2.9541,-2.9573,-2.9554,-2.9682,-2.9643,-2.9649,-2.9653,-2.9691,-2.9704,-2.9715,-2.9563,-2.9562,-2.9562,0,0,-2.9274,-2.9295,-2.9349,-2.9371,-2.9402,-2.9407,-2.942,-2.9448,-2.9455,-2.9517,-2.9499,-2.9537,-2.9606,-2.9628,-2.9648,-2.9744,-2.9728,-2.9756,-2.9805,-2.9844,-2.9855,-2.9865,-2.9897,-2.9909,-2.9764,-2.9764,-2.9764,0,-2.9315,-2.9381,-2.9379,-2.9428,-2.9451,-2.9432,-2.9487,-2.9508,-2.955,-2.9566,-2.9544,-2.963,-2.9649,-2.9723,-2.9746,-2.9764,-2.9777,-2.9752,-2.9854,-2.9863,-2.9872,-2.9903,-2.9916,-2.9767,-2.9766,-2.9766,-2.9766,0,-2.9429,-2.9475,-2.9516,-2.9556,-2.9584,-2.9636,-2.9641,-2.967,-2.9664,-2.9671,-2.9733,-2.9755,-2.9796,-2.9814,-2.9809,-2.9888,-2.9875,-2.9854,-2.9815,-2.9888,-2.9917,-2.9929,-2.9771,-2.977,-2.9769,-2.9768,0,0,-2.9544,-2.9583,-2.9598,-2.9615,-2.9648,-2.9683,-2.9734,-2.9774,-2.9798,-2.9827,-2.9869,-2.9927,-2.9908,-2.993,-2.9928,-2.9962,-3.0035,-2.9937,-2.9937,-2.9953,-3.0121,-3.0135,-3.0149,-3.0025,-3.0028,-3.0029,-3.0118,0,-2.9634,-2.9723,-2.9722,-2.9804,-2.9845,-2.9827,-2.9871,-2.9895,-2.9904,-2.9939,-2.9948,-2.9989,-2.9962,-2.9975,-3.0008,-3.0019,-3.0068,-3.0013,-3.0062,-3.0064,-3.0054,-3.0165,-3.0181,-3.0263,-3.0129,-3.0131,-3.0133,0,-2.975,-2.9783,-2.9869,-2.9894,-2.9912,-2.9951,-2.9987,-3.0022,-3.0049,-3.0053,-3.0078,-3.0069,-3.012,-3.008,-3.0149,-3.0111,-3.0132,-3.014,-3.0143,-3.0146,-3.0102,-3.017,-3.0289,-3.0301,-3.0151,-3.015,-3.0148,0,-2.9824,-2.989,-2.9949,-2.9965,-2.9996,-3.0024,-3.0039,-3.0063,-3.0087,-3.0119,-3.0134,-3.0171,-3.0192,-3.022,-3.0222,-3.0193,-3.029,-3.0252,-3.0294,-3.0294,-3.0314,-3.0312,-3.0437,-3.033,-3.0329,-3.0329,-3.0329,0,-2.9923,-2.9976,-2.9982,-3.0018,-3.0076,-3.0075,-3.0133,-3.0144,-3.0166,-3.0204,-3.0191,-3.0227,-3.0227,-3.0263,-3.0265,-3.032,-3.033,-3.0333,-3.0333,-3.0334,-3.0333,-3.0346,-3.034,-3.0332,-3.0332,-3.0331,-3.0331,0,-3.0014,-3.0021,-3.0084,-3.0109,-3.0116,-3.0158,-3.0178,-3.0212,-3.022,-3.0267,-3.0278,-3.029,-3.0331,-3.0336,-3.0385,-3.0386,-3.0452,-3.0446,-3.0443,-3.0442,-3.0483,-3.0478,-3.0619,-3.0637,-3.0519,-3.052,-3.0521,0,-3.0077,-3.0117,-3.0145,-3.017,-3.0185,-3.0225,-3.0249,-3.0249,-3.0275,-3.0308,-3.0338,-3.0378,-3.041,-3.0478,-3.049,-3.0527,-3.0521,-3.0567,-3.0526,-3.0525,-3.0519,-3.0516,-3.052,-3.0575,-3.0576,-3.0577,-3.0578,0,-3.0186,-3.0187,-3.0222,-3.0259,-3.0288,-3.0317,-3.0344,-3.0365,-3.0368,-3.0397,-3.044,-3.0465,-3.0514,-3.0554,-3.059,-3.0604,-3.0591,-3.0591,-3.0603,-3.0603,-3.0599,-3.06,-3.0463,-3.0588,-3.0587,-3.0586,-3.0586,-3.0585,-3.0263,-3.0298,-3.0323,-3.0362,-3.0383,-3.0408,-3.0441,-3.0452,-3.0487,-3.0527,-3.0525,-3.0572,-3.0597,-3.0644,-3.066,-3.0696,-3.0681,-3.0698,-3.0701,-3.0705,-3.0709,-3.0595,-3.0703,-3.0703,-3.0702,-3.0702,-3.0702,0,-3.0371,-3.0386,-3.0422,-3.046,-3.0491,-3.0477,-3.0506,-3.0533,-3.0574,-3.0598,-3.063,-3.0678,-3.0716,-3.0731,-3.0768,-3.0794,-3.0789,-3.0804,-3.0801,-3.0804,-3.0721,-3.0707,-3.0807,-3.0807,-3.0807,-3.0807,-3.0807,-3.0807,-3.043,-3.0486,-3.049,-3.0556,-3.0571,-3.0616,-3.0634,-3.0657,-3.0676,-3.073,-3.0762,-3.0772,-3.0792,-3.083,-3.0864,-3.0868,-3.0881,-3.0898,-3.0899,-3.0821,-3.081,-3.08,-3.0787,-3.0902,-3.0902,-3.0979,-3.0979,-3.098]}]]